EW6749 Weather Reports


Display with metric or nautical units.
time (UTC)temp
F
wind
direction
speed
MPH
gust
MPH
rain 1hr
in
rain 24hr
in
rain mn
in
humidity
%
barometer
mb
20260509075018 52 315 0.0 1.0 0.00 0.00 0.00 94 1016.9
20260509074016 51 290 0.0 1.0 0.00 0.00 0.00 94 1016.9
20260509073016 51 299 0.0 2.0 0.00 0.00 0.00 94 1016.9
20260509072016 51 298 1.0 2.0 0.00 0.00 0.00 93 1017.0
20260509071017 51 289 1.0 3.0 0.00 0.00 0.00 93 1017.0
20260509070015 52 287 1.0 2.0 0.00 0.00 0.00 93 1017.0
20260509065016 51 285 1.0 3.0 0.00 0.00 0.00 94 1017.1
20260509064017 51 281 1.0 3.0 0.00 0.00 0.00 93 1017.1
20260509063016 51 307 0.0 2.0 0.00 0.00 0.00 93 1017.1
20260509062017 52 278 1.0 2.0 0.00 0.00 0.00 93 1017.1
20260509061016 52 273 0.0 2.0 0.00 0.00 0.00 93 1017.2
20260509060037 52 282 2.0 3.0 0.00 0.00 0.00 93 1017.2
20260509055017 52 292 1.0 3.0 0.00 0.00 0.00 93 1017.3
20260509054017 52 285 2.0 3.0 0.00 0.00 0.00 92 1017.4
20260509053017 52 287 1.0 2.0 0.00 0.00 0.00 92 1017.4
20260509052017 52 283 1.0 2.0 0.00 0.00 0.00 91 1017.4
20260509051018 53 288 1.0 2.0 0.00 0.00 0.00 91 1017.4
20260509050018 53 289 1.0 2.0 0.00 0.00 0.00 90 1017.3
20260509045018 53 320 0.0 2.0 0.00 0.00 0.00 90 1017.2
20260509044016 54 323 1.0 3.0 0.00 0.00 0.00 89 1017.3
20260509043018 54 303 1.0 4.0 0.00 0.00 0.00 89 1017.2
20260509042016 55 353 1.0 4.0 0.00 0.00 0.00 87 1017.1
20260509041016 55 310 1.0 3.0 0.00 0.00 0.00 86 1017.0
20260509040015 56 305 1.0 2.0 0.00 0.00 0.00 85 1017.1
20260509035016 56 310 0.0 2.0 0.00 0.00 0.00 85 1016.9
20260509034016 57 301 1.0 2.0 0.00 0.00 0.00 84 1016.9
20260509033056 57 298 1.0 3.0 0.00 0.00 0.00 83 1016.8
20260509032016 58 290 1.0 3.0 0.00 0.00 0.00 82 1016.8
20260509031017 58 342 0.0 1.0 0.00 0.00 0.00 81 1016.7
20260509030017 59 50 1.0 2.0 0.00 0.00 0.00 81 1016.7
20260509025017 60 43 1.0 2.0 0.00 0.00 0.00 79 1016.6
20260509024019 60 8 0.0 2.0 0.00 0.00 0.00 79 1016.5
20260509023037 60 68 0.0 2.0 0.00 0.00 0.00 79 1016.5
20260509022018 61 141 0.0 2.0 0.00 0.00 0.00 78 1016.5
20260509021059 62 97 1.0 3.0 0.00 0.00 0.00 76 1016.5
20260509020018 63 84 1.0 4.0 0.00 0.00 0.00 74 1016.5
20260509015038 64 77 1.0 3.0 0.00 0.00 0.00 72 1016.5
20260509014039 65 291 0.0 4.0 0.00 0.00 0.00 70 1016.5
20260509013016 66 309 1.0 4.0 0.00 0.00 0.00 65 1016.5
20260509012016 66 21 1.0 3.0 0.00 0.00 0.00 67 1016.5
20260509011016 67 117 1.0 5.0 0.00 0.00 0.00 66 1016.5
20260509010016 67 106 1.0 5.0 0.00 0.00 0.00 63 1016.5
20260509005016 67 120 1.0 4.0 0.00 0.00 0.00 66 1016.6
20260509004017 67 116 1.0 3.0 0.00 0.00 0.00 63 1016.6
20260509003017 67 107 2.0 4.0 0.00 0.00 0.00 64 1016.6
20260509002017 66 109 1.0 4.0 0.00 0.00 0.00 66 1016.8
20260509001017 67 117 2.0 5.0 0.00 0.00 0.00 66 1016.8
20260509000037 67 101 1.0 5.0 0.00 0.00 0.00 66 1016.8
20260508235017 67 170 1.0 4.0 0.00 0.00 0.00 64 1016.9
20260508234018 67 134 1.0 4.0 0.00 0.00 0.00 65 1016.9
20260508233018 69 118 2.0 5.0 0.00 0.00 0.00 62 1016.9
20260508232019 69 118 2.0 5.0 0.00 0.00 0.00 61 1017.0
20260508231018 70 81 1.0 3.0 0.00 0.00 0.00 60 1017.1
20260508230015 69 317 1.0 7.0 0.00 0.00 0.00 60 1017.2
20260508225016 69 115 1.0 5.0 0.00 0.00 0.00 63 1017.4
20260508224018 69 114 1.0 5.0 0.00 0.00 0.00 61 1017.5
20260508223036 69 111 1.0 6.0 0.00 0.00 0.00 61 1017.7
20260508222036 69 109 2.0 5.0 0.00 0.00 0.00 61 1017.7
20260508221016 69 94 1.0 3.0 0.00 0.00 0.00 61 1017.8
20260508220016 69 64 2.0 6.0 0.00 0.00 0.00 61 1017.9
20260508215057 69 116 1.0 5.0 0.00 0.00 0.00 62 1018.0
20260508214017 69 132 1.0 5.0 0.00 0.00 0.00 62 1018.2
20260508213016 68 15 1.0 7.0 0.00 0.00 0.00 63 1018.3
20260508212018 69 294 1.0 6.0 0.00 0.00 0.00 63 1018.4
20260508211037 69 95 1.0 5.0 0.00 0.00 0.00 62 1018.5
20260508210018 69 145 1.0 6.0 0.00 0.00 0.00 61 1018.5
20260508205017 69 103 2.0 8.0 0.00 0.00 0.00 62 1018.5
20260508204018 70 119 2.0 6.0 0.00 0.00 0.00 61 1018.6
20260508203019 69 68 2.0 6.0 0.00 0.00 0.00 60 1018.7
20260508202056 69 106 2.0 5.0 0.00 0.00 0.00 61 1018.7
20260508201015 68 332 1.0 4.0 0.00 0.00 0.00 62 1018.8
20260508200016 68 100 2.0 6.0 0.00 0.00 0.00 61 1018.9
20260508195015 68 317 1.0 5.0 0.00 0.00 0.00 60 1018.9
20260508194016 69 112 2.0 6.0 0.00 0.00 0.00 58 1018.9
20260508193018 68 28 1.0 6.0 0.00 0.00 0.00 58 1019.0
20260508192016 68 326 1.0 8.0 0.00 0.00 0.00 58 1019.0
20260508191017 67 127 2.0 5.0 0.00 0.00 0.00 59 1019.2
20260508190036 68 189 3.0 7.0 0.00 0.00 0.00 58 1019.2
20260508185017 68 117 2.0 5.0 0.00 0.00 0.00 57 1019.2
20260508184017 69 106 1.0 6.0 0.00 0.00 0.00 55 1019.3
20260508183021 67 54 1.0 3.0 0.00 0.00 0.00 56 1019.3
20260508182017 66 67 1.0 6.0 0.00 0.00 0.00 57 1019.4
20260508181018 65 66 1.0 5.0 0.00 0.00 0.00 58 1019.4
20260508180018 64 90 1.0 5.0 0.00 0.00 0.00 60 1019.4
20260508175018 64 91 1.0 4.0 0.00 0.00 0.00 61 1019.5
20260508174018 64 299 2.0 5.0 0.00 0.00 0.00 61 1019.4
20260508173018 63 98 1.0 3.0 0.00 0.00 0.00 64 1019.4
20260508172018 62 17 1.0 5.0 0.00 0.00 0.00 64 1019.5
20260508171016 62 74 1.0 5.0 0.00 0.00 0.00 64 1019.4
20260508170016 61 313 1.0 4.0 0.00 0.00 0.00 66 1019.4
20260508165016 61 80 1.0 5.0 0.00 0.00 0.00 66 1019.4
20260508164016 60 36 1.0 5.0 0.00 0.00 0.00 68 1019.4
20260508163016 59 57 1.0 3.0 0.00 0.00 0.00 69 1019.4
20260508162019 59 41 1.0 7.0 0.00 0.00 0.00 70 1019.5
20260508161017 57 12 1.0 4.0 0.00 0.00 0.00 72 1019.6
20260508160057 56 57 1.0 5.0 0.00 0.00 0.00 77 1019.5
20260508155037 55 329 1.0 2.0 0.00 0.00 0.00 78 1019.6
20260508154018 54 346 1.0 6.0 0.00 0.00 0.00 80 1019.6
20260508153018 54 340 1.0 3.0 0.00 0.00 0.00 81 1019.6
20260508152017 53 302 0.0 2.0 0.00 0.00 0.00 83 1019.6
20260508151017 53 353 0.0 1.0 0.00 0.00 0.00 84 1019.6
20260508150018 53 314 0.0 2.0 0.00 0.00 0.00 84 1019.5
20260508145016 52 305 0.0 2.0 0.00 0.00 0.00 85 1019.6
20260508144015 52 293 2.0 3.0 0.00 0.00 0.00 85 1019.6
20260508143036 52 288 1.0 4.0 0.00 0.00 0.00 86 1019.5
20260508142015 52 293 1.0 3.0 0.00 0.00 0.00 86 1019.3
20260508141016 52 304 1.0 2.0 0.00 0.00 0.00 86 1019.2
20260508140016 52 321 1.0 2.0 0.00 0.00 0.00 86 1019.1
20260508135016 52 310 1.0 3.0 0.00 0.00 0.00 86 1019.0
20260508134016 52 303 0.0 2.0 0.00 0.00 0.00 87 1019.0
20260508133017 52 288 1.0 4.0 0.00 0.00 0.00 87 1018.9
20260508132037 52 291 1.0 3.0 0.00 0.00 0.00 87 1018.8
20260508131016 52 291 1.0 3.0 0.00 0.00 0.00 87 1018.7
20260508130017 52 291 1.0 2.0 0.00 0.00 0.00 87 1018.8
20260508125018 53 310 1.0 2.0 0.00 0.00 0.00 86 1018.8
20260508124058 53 306 0.0 2.0 0.00 0.00 0.00 86 1018.8
20260508123017 53 312 1.0 2.0 0.00 0.00 0.00 86 1018.8
20260508122018 53 308 0.0 2.0 0.00 0.00 0.00 86 1018.9
20260508121016 53 310 1.0 2.0 0.00 0.00 0.00 87 1019.0
20260508120016 53 329 0.0 2.0 0.00 0.00 0.00 86 1018.9
20260508115016 53 299 1.0 3.0 0.00 0.00 0.00 86 1018.9
20260508114016 53 335 1.0 3.0 0.00 0.00 0.00 87 1018.7
20260508113017 54 282 2.0 4.0 0.00 0.00 0.00 86 1018.7
20260508112016 54 308 1.0 4.0 0.00 0.00 0.00 87 1018.7
20260508111037 53 301 1.0 2.0 0.00 0.00 0.00 87 1018.8
20260508110016 53 299 1.0 3.0 0.00 0.00 0.00 88 1018.8
20260508105017 54 283 2.0 4.0 0.00 0.00 0.00 87 1018.7
20260508104017 54 331 2.0 4.0 0.00 0.00 0.00 88 1018.7
20260508103017 54 311 2.0 4.0 0.00 0.00 0.00 87 1018.7
20260508102017 54 313 1.0 3.0 0.00 0.00 0.00 88 1018.6
20260508101038 54 42 0.0 2.0 0.00 0.00 0.00 87 1018.6
20260508100038 54 328 1.0 3.0 0.00 0.00 0.00 87 1018.5
20260508095018 55 355 1.0 4.0 0.00 0.00 0.00 87 1018.5
20260508094015 54 325 1.0 3.0 0.00 0.00 0.00 87 1018.6
20260508093016 55 29 1.0 4.0 0.00 0.00 0.00 87 1018.6
20260508092016 55 352 0.0 2.0 0.00 0.00 0.00 87 1018.5
20260508091016 55 27 1.0 2.0 0.00 0.00 0.00 87 1018.6
20260508090016 55 17 1.0 4.0 0.00 0.00 0.00 87 1018.6
20260508085016 55 332 1.0 2.0 0.00 0.00 0.00 88 1018.7
20260508084036 55 328 0.0 2.0 0.00 0.00 0.00 88 1018.7
20260508083016 55 312 0.0 2.0 0.00 0.00 0.00 88 1018.7
20260508082017 55 0 0.0 2.0 0.00 0.00 0.00 88 1018.8
20260508081016 55 354 0.0 2.0 0.00 0.00 0.00 88 1018.8
20260508080017 55 308 0.0 2.0 0.00 0.00 0.00 89 1018.8